Location: Santa Giusta
(39.8800°N, 8.6069°E)
Time: 16:47:04
(UTC+00:00)

Meteor 1-11 - Pass Details

Date: 02 February 2023
Orbit: 839 x 888 km, 81.2° (Epoch: 31 March)

Event Time Altitude Azimuth Distance (km) Brightness Sun altitude
Rises 17:51:50 0° 188° (S) 3,478 7.7 -13.0°
Reaches altitude 10° 17:54:16 10° 189° (S) 2,543 6.9 -13.5°
Maximum altitude 18:00:05 88° 279° (W) 893 4.3 -14.6°
Drops below altitude 10° 18:05:55 10° 9° (N) 2,550 6.5 -15.7°
Sets 18:08:22 0° 10° (N) 3,488 7.2 -16.1°
